SKW4683 KTUS-KSFO

Flight info

Callsign SKW4683
Flight time 1h 57m
Altitude 30000
Route WLDKT4 GBN J104 CULTS J212 DECAS J65 PMD J6 AVE DCT MAKRS DCT SERFR SERFR4
Aircraft E175/M-SDE3GILORVW/S

Departure

Time 2026-04-23 01:05
Airport Tucson International Airport (KTUS)

Arrival

Time 2026-04-23 03:02
Airport San Francisco International Airport (KSFO)
Time Latitude Longitude Altitude Speed Heading
2026-04-23 00:29 32.12107 -110.94020 2597 ft 0 kts 96°
2026-04-23 00:51 32.12107 -110.94019 2597 ft 0 kts 96°
2026-04-23 00:51 32.12108 -110.94025 2597 ft 2 kts 95°
2026-04-23 00:51 32.12109 -110.94043 2597 ft 2 kts 95°
2026-04-23 00:52 32.12111 -110.94061 2597 ft 2 kts 95°
2026-04-23 00:52 32.12112 -110.94078 2597 ft 2 kts 102°
2026-04-23 00:52 32.12122 -110.94091 2597 ft 2 kts 159°
2026-04-23 00:52 32.12133 -110.94093 2596 ft 0 kts 181°
2026-04-23 00:53 32.12135 -110.94093 2596 ft 0 kts 181°
2026-04-23 00:56 32.12134 -110.94093 2596 ft 0 kts 182°
2026-04-23 00:56 32.12132 -110.94093 2596 ft 0 kts 182°
2026-04-23 00:56 32.12125 -110.94093 2597 ft 1 kts 182°
2026-04-23 00:56 32.12111 -110.94093 2597 ft 2 kts 178°
2026-04-23 00:57 32.12088 -110.94092 2598 ft 4 kts 178°
2026-04-23 00:57 32.12054 -110.94081 2599 ft 5 kts 164°
2026-04-23 00:57 32.12010 -110.94115 2599 ft 9 kts 226°
2026-04-23 00:57 32.11964 -110.94109 2600 ft 8 kts 139°
2026-04-23 00:58 32.11916 -110.94054 2602 ft 10 kts 135°
2026-04-23 00:58 32.11862 -110.93990 2604 ft 12 kts 135°
2026-04-23 00:58 32.11794 -110.93910 2605 ft 15 kts 135°
2026-04-23 00:58 32.11711 -110.93813 2607 ft 17 kts 135°
2026-04-23 00:59 32.11621 -110.93707 2611 ft 19 kts 135°
2026-04-23 00:59 32.11521 -110.93590 2616 ft 20 kts 135°
2026-04-23 00:59 32.11417 -110.93468 2618 ft 21 kts 135°
2026-04-23 00:59 32.11306 -110.93338 2621 ft 22 kts 135°
2026-04-23 01:00 32.11198 -110.93211 2624 ft 21 kts 135°
2026-04-23 01:00 32.11093 -110.93089 2627 ft 20 kts 135°
2026-04-23 01:00 32.10992 -110.92969 2631 ft 20 kts 135°
2026-04-23 01:00 32.10886 -110.92844 2634 ft 21 kts 135°
2026-04-23 01:01 32.10778 -110.92718 2638 ft 22 kts 134°
2026-04-23 01:01 32.10670 -110.92591 2643 ft 21 kts 135°
2026-04-23 01:01 32.10565 -110.92467 2647 ft 21 kts 135°
2026-04-23 01:01 32.10458 -110.92342 2650 ft 20 kts 135°
2026-04-23 01:02 32.10362 -110.92229 2654 ft 17 kts 135°
2026-04-23 01:02 32.10311 -110.92179 2656 ft 6 kts 179°
2026-04-23 01:02 32.10283 -110.92202 2655 ft 4 kts 225°
2026-04-23 01:02 32.10280 -110.92207 2655 ft 0 kts 225°
2026-04-23 01:03 32.10273 -110.92213 2655 ft 2 kts 225°
2026-04-23 01:03 32.10251 -110.92240 2654 ft 6 kts 224°
2026-04-23 01:03 32.10218 -110.92279 2653 ft 5 kts 233°
2026-04-23 01:03 32.10232 -110.92320 2652 ft 7 kts 315°
2026-04-23 01:04 32.10337 -110.92445 2648 ft 50 kts 314°
2026-04-23 01:04 32.10756 -110.92937 2634 ft 116 kts 313°
2026-04-23 01:04 32.12283 -110.94624 3136 ft 165 kts 308°
2026-04-23 01:05 32.13125 -110.95619 3622 ft 177 kts 308°
2026-04-23 01:05 32.13962 -110.96648 4249 ft 176 kts 308°
2026-04-23 01:05 32.14817 -110.97710 4802 ft 180 kts 308°
2026-04-23 01:05 32.15688 -110.98755 5359 ft 183 kts 310°
2026-04-23 01:06 32.16597 -110.99818 5889 ft 187 kts 310°
2026-04-23 01:06 32.17533 -111.00931 6320 ft 197 kts 309°
2026-04-23 01:06 32.18509 -111.02106 6810 ft 204 kts 310°
2026-04-23 01:06 32.19515 -111.03275 7366 ft 207 kts 311°
2026-04-23 01:07 32.20547 -111.04481 7847 ft 216 kts 311°
2026-04-23 01:07 32.21693 -111.05830 7922 ft 245 kts 311°
2026-04-23 01:07 32.22566 -111.07622 7979 ft 267 kts 281°
2026-04-23 01:07 32.22906 -111.09845 8272 ft 283 kts 278°
2026-04-23 01:08 32.23238 -111.12134 8868 ft 288 kts 277°
2026-04-23 01:08 32.23577 -111.14457 9592 ft 287 kts 278°
2026-04-23 01:08 32.23911 -111.16741 10338 ft 285 kts 278°
2026-04-23 01:08 32.24248 -111.19051 10985 ft 287 kts 278°
2026-04-23 01:09 32.24589 -111.21395 11481 ft 294 kts 278°
2026-04-23 01:09 32.24937 -111.23791 11927 ft 302 kts 278°
2026-04-23 01:09 32.25298 -111.26272 12400 ft 310 kts 278°
2026-04-23 01:09 32.25663 -111.28777 12960 ft 314 kts 278°
2026-04-23 01:10 32.26031 -111.31317 13623 ft 314 kts 278°
2026-04-23 01:10 32.26397 -111.33842 14294 ft 313 kts 278°
2026-04-23 01:10 32.26763 -111.36373 14936 ft 313 kts 278°
2026-04-23 01:10 32.27124 -111.38871 15567 ft 314 kts 278°
2026-04-23 01:11 32.27493 -111.41431 16137 ft 316 kts 278°
2026-04-23 01:11 32.27861 -111.43988 16650 ft 318 kts 278°
2026-04-23 01:11 32.28448 -111.46503 17179 ft 325 kts 295°
2026-04-23 01:11 32.29662 -111.48778 17747 ft 328 kts 300°
2026-04-23 01:12 32.30928 -111.51028 18287 ft 330 kts 299°
2026-04-23 01:12 32.32185 -111.53259 18807 ft 331 kts 299°
2026-04-23 01:12 32.33462 -111.55524 19327 ft 333 kts 299°
2026-04-23 01:12 32.34748 -111.57807 19795 ft 336 kts 299°
2026-04-23 01:13 32.36049 -111.60115 20284 ft 338 kts 299°
2026-04-23 01:13 32.37347 -111.62421 20770 ft 340 kts 299°
2026-04-23 01:13 32.38661 -111.64754 21291 ft 341 kts 298°
2026-04-23 01:13 32.39966 -111.67078 21747 ft 343 kts 298°
2026-04-23 01:14 32.41302 -111.69454 22231 ft 345 kts 298°
2026-04-23 01:14 32.42632 -111.71822 22691 ft 347 kts 298°
2026-04-23 01:14 32.43960 -111.74187 23170 ft 348 kts 298°
2026-04-23 01:14 32.45293 -111.76564 23642 ft 349 kts 298°
2026-04-23 01:15 32.46630 -111.78950 24108 ft 350 kts 298°
2026-04-23 01:15 32.47976 -111.81351 24595 ft 350 kts 298°
2026-04-23 01:15 32.49320 -111.83750 25049 ft 350 kts 298°
2026-04-23 01:15 32.50664 -111.86153 25446 ft 352 kts 298°
2026-04-23 01:16 32.52002 -111.88547 25891 ft 351 kts 298°
2026-04-23 01:16 32.53360 -111.90977 26285 ft 353 kts 298°
2026-04-23 01:16 32.54709 -111.93391 26653 ft 355 kts 298°
2026-04-23 01:16 32.56056 -111.95806 27109 ft 353 kts 298°
2026-04-23 01:17 32.57418 -111.98247 27480 ft 355 kts 298°
2026-04-23 01:17 32.58785 -112.00702 27820 ft 356 kts 297°
2026-04-23 01:17 32.60141 -112.03136 28212 ft 356 kts 298°
2026-04-23 01:17 32.61508 -112.05591 28563 ft 357 kts 297°
2026-04-23 01:18 32.62872 -112.08042 28946 ft 357 kts 297°
2026-04-23 01:18 32.64225 -112.10476 29276 ft 358 kts 298°
2026-04-23 01:18 32.65595 -112.12942 29610 ft 359 kts 297°
2026-04-23 01:18 32.66970 -112.15417 29904 ft 356 kts 298°
2026-04-23 01:19 32.69713 -112.20366 29980 ft 367 kts 298°
2026-04-23 01:19 32.72572 -112.25528 29982 ft 382 kts 297°
2026-04-23 01:20 32.75512 -112.30843 29973 ft 392 kts 297°
2026-04-23 01:20 32.78476 -112.36206 29965 ft 391 kts 297°
2026-04-23 01:21 32.81437 -112.41576 29969 ft 387 kts 297°
2026-04-23 01:21 32.84408 -112.46970 29961 ft 388 kts 297°
2026-04-23 01:22 32.87360 -112.52338 29961 ft 389 kts 297°
2026-04-23 01:22 32.90304 -112.57699 29943 ft 387 kts 297°
2026-04-23 01:23 32.93238 -112.63049 29935 ft 389 kts 297°
2026-04-23 01:23 32.96321 -112.68356 29944 ft 396 kts 304°
2026-04-23 01:24 33.00039 -112.73234 29930 ft 396 kts 304°
2026-04-23 01:24 33.03699 -112.78066 29931 ft 398 kts 305°
2026-04-23 01:25 33.07404 -112.82963 29922 ft 399 kts 304°
2026-04-23 01:25 33.11081 -112.87831 29930 ft 395 kts 305°
2026-04-23 01:26 33.14775 -112.92728 29930 ft 398 kts 304°
2026-04-23 01:26 33.18459 -112.97620 29930 ft 397 kts 304°
2026-04-23 01:27 33.22161 -113.02541 29925 ft 396 kts 305°
2026-04-23 01:27 33.25837 -113.07435 29923 ft 397 kts 305°
2026-04-23 01:28 33.29524 -113.12350 29943 ft 400 kts 305°
2026-04-23 01:28 33.33225 -113.17289 29941 ft 397 kts 305°
2026-04-23 01:29 33.36896 -113.22198 29947 ft 401 kts 305°
2026-04-23 01:29 33.40610 -113.27169 29941 ft 398 kts 306°
2026-04-23 01:30 33.44276 -113.32083 29930 ft 396 kts 305°
2026-04-23 01:30 33.47962 -113.37031 29955 ft 401 kts 306°
2026-04-23 01:31 33.51642 -113.41976 29944 ft 400 kts 305°
2026-04-23 01:31 33.55356 -113.46973 29963 ft 401 kts 305°
2026-04-23 01:32 33.58407 -113.52405 29959 ft 389 kts 290°
2026-04-23 01:32 33.59830 -113.58594 29959 ft 385 kts 281°
2026-04-23 01:33 33.60989 -113.64853 29949 ft 384 kts 281°
2026-04-23 01:33 33.62150 -113.71111 29960 ft 386 kts 280°
2026-04-23 01:34 33.63310 -113.77374 29949 ft 385 kts 280°
2026-04-23 01:34 33.64465 -113.83630 29947 ft 386 kts 280°
2026-04-23 01:35 33.65625 -113.89927 29956 ft 387 kts 280°
2026-04-23 01:35 33.66787 -113.96250 29946 ft 389 kts 280°
2026-04-23 01:36 33.67946 -114.02578 29940 ft 387 kts 280°
2026-04-23 01:36 33.69105 -114.08921 29943 ft 390 kts 280°
2026-04-23 01:37 33.70259 -114.15260 29928 ft 388 kts 280°
2026-04-23 01:37 33.71409 -114.21596 29925 ft 388 kts 280°
2026-04-23 01:38 33.72569 -114.28005 29912 ft 389 kts 280°
2026-04-23 01:38 33.73706 -114.34307 29913 ft 389 kts 280°
2026-04-23 01:39 33.74849 -114.40659 29911 ft 388 kts 280°
2026-04-23 01:39 33.75983 -114.46986 29902 ft 390 kts 280°
2026-04-23 01:40 33.77119 -114.53348 29907 ft 389 kts 279°
2026-04-23 01:40 33.77624 -114.59767 29914 ft 386 kts 274°
2026-04-23 01:41 33.77999 -114.66216 29917 ft 389 kts 273°
2026-04-23 01:41 33.78372 -114.72651 29937 ft 388 kts 272°
2026-04-23 01:42 33.78742 -114.79102 29934 ft 386 kts 272°
2026-04-23 01:42 33.79106 -114.85500 29933 ft 386 kts 272°
2026-04-23 01:43 33.79467 -114.91936 29940 ft 388 kts 273°
2026-04-23 01:43 33.79827 -114.98381 29938 ft 387 kts 272°
2026-04-23 01:44 33.80180 -115.04774 29936 ft 386 kts 272°
2026-04-23 01:44 33.80534 -115.11227 29931 ft 387 kts 272°
2026-04-23 01:45 33.80881 -115.17628 29940 ft 388 kts 273°
2026-04-23 01:45 33.81227 -115.24080 29935 ft 389 kts 273°
2026-04-23 01:46 33.81571 -115.30546 29930 ft 388 kts 273°
2026-04-23 01:46 33.81910 -115.36982 29953 ft 386 kts 273°
2026-04-23 01:47 33.82247 -115.43424 29949 ft 386 kts 274°
2026-04-23 01:47 33.83627 -115.49631 29978 ft 393 kts 288°
2026-04-23 01:48 33.85613 -115.55729 29989 ft 392 kts 287°
2026-04-23 01:48 33.87566 -115.61794 29994 ft 390 kts 288°
2026-04-23 01:49 33.89529 -115.67902 30024 ft 391 kts 287°
2026-04-23 01:49 33.91479 -115.73985 30027 ft 393 kts 287°
2026-04-23 01:50 33.93442 -115.80118 30034 ft 392 kts 287°
2026-04-23 01:50 33.95396 -115.86235 30034 ft 393 kts 287°
2026-04-23 01:51 33.97344 -115.92348 30045 ft 392 kts 287°
2026-04-23 01:51 33.99299 -115.98495 30055 ft 394 kts 287°
2026-04-23 01:52 34.01250 -116.04639 30052 ft 392 kts 287°
2026-04-23 01:52 34.03200 -116.10798 30056 ft 394 kts 287°
2026-04-23 01:53 34.05152 -116.16973 30070 ft 392 kts 287°
2026-04-23 01:53 34.07078 -116.23074 30059 ft 390 kts 287°
2026-04-23 01:54 34.09013 -116.29221 30057 ft 393 kts 287°
2026-04-23 01:54 34.10957 -116.35407 30042 ft 392 kts 287°
2026-04-23 01:55 34.12877 -116.41531 30035 ft 391 kts 287°
2026-04-23 01:55 34.14787 -116.47633 30040 ft 389 kts 287°
2026-04-23 01:56 34.16703 -116.53772 30043 ft 391 kts 287°
2026-04-23 01:56 34.18605 -116.59872 30055 ft 391 kts 287°
2026-04-23 01:57 34.20518 -116.66023 30073 ft 392 kts 287°
2026-04-23 01:57 34.22432 -116.72189 30092 ft 392 kts 287°
2026-04-23 01:58 34.24343 -116.78359 30106 ft 390 kts 287°
2026-04-23 01:58 34.26247 -116.84518 30107 ft 389 kts 287°
2026-04-23 01:59 34.28141 -116.90660 30097 ft 390 kts 287°
2026-04-23 01:59 34.30034 -116.96811 30096 ft 391 kts 287°
2026-04-23 02:00 34.31611 -117.01940 30091 ft 390 kts 287°
2026-04-23 02:00 34.33515 -117.08147 30096 ft 390 kts 287°
2026-04-23 02:01 34.35396 -117.14286 30081 ft 389 kts 287°
2026-04-23 02:01 34.37275 -117.20431 30077 ft 391 kts 287°
2026-04-23 02:02 34.39145 -117.26560 30065 ft 389 kts 287°
2026-04-23 02:02 34.41007 -117.32675 30064 ft 388 kts 287°
2026-04-23 02:03 34.42865 -117.38790 30066 ft 387 kts 286°
2026-04-23 02:03 34.44723 -117.44917 30066 ft 389 kts 287°
2026-04-23 02:04 34.46567 -117.51013 30058 ft 387 kts 287°
2026-04-23 02:04 34.48434 -117.57196 30045 ft 388 kts 286°
2026-04-23 02:05 34.50275 -117.63307 30041 ft 385 kts 286°
2026-04-23 02:05 34.52117 -117.69430 30054 ft 389 kts 286°
2026-04-23 02:06 34.53958 -117.75568 30055 ft 386 kts 286°
2026-04-23 02:06 34.55777 -117.81644 30056 ft 384 kts 286°
2026-04-23 02:07 34.57600 -117.87746 30077 ft 383 kts 287°
2026-04-23 02:07 34.59427 -117.93870 30089 ft 386 kts 286°
2026-04-23 02:08 34.61252 -118.00008 30089 ft 386 kts 286°
2026-04-23 02:08 34.63222 -118.06051 30084 ft 391 kts 294°
2026-04-23 02:09 34.66561 -118.11336 30089 ft 397 kts 304°
2026-04-23 02:09 34.70146 -118.16468 30089 ft 399 kts 303°
2026-04-23 02:10 34.73689 -118.21580 30091 ft 398 kts 304°
2026-04-23 02:10 34.77238 -118.26711 30083 ft 396 kts 304°
2026-04-23 02:11 34.80742 -118.31786 30090 ft 392 kts 304°
2026-04-23 02:11 34.84281 -118.36919 30095 ft 395 kts 304°
2026-04-23 02:12 34.87788 -118.42011 30097 ft 393 kts 303°
2026-04-23 02:12 34.91295 -118.47112 30097 ft 392 kts 304°
2026-04-23 02:13 34.94817 -118.52244 30104 ft 395 kts 303°
2026-04-23 02:13 34.98303 -118.57329 30088 ft 393 kts 303°
2026-04-23 02:14 35.01696 -118.62582 30087 ft 390 kts 296°
2026-04-23 02:14 35.04385 -118.68239 30104 ft 385 kts 295°
2026-04-23 02:15 35.08405 -118.76729 30102 ft 386 kts 295°
2026-04-23 02:16 35.11079 -118.82387 30106 ft 383 kts 295°
2026-04-23 02:16 35.13744 -118.88034 30103 ft 385 kts 295°
2026-04-23 02:17 35.16401 -118.93675 30107 ft 387 kts 295°
2026-04-23 02:17 35.19085 -118.99380 30108 ft 385 kts 295°
2026-04-23 02:18 35.21744 -119.05045 30107 ft 382 kts 295°
2026-04-23 02:18 35.24376 -119.10658 30101 ft 384 kts 295°
2026-04-23 02:19 35.27028 -119.16325 30105 ft 382 kts 295°
2026-04-23 02:19 35.29664 -119.21967 30104 ft 384 kts 296°
2026-04-23 02:20 35.32293 -119.27600 30097 ft 381 kts 295°
2026-04-23 02:20 35.34938 -119.33282 30106 ft 380 kts 295°
2026-04-23 02:21 35.37560 -119.38921 30104 ft 380 kts 295°
2026-04-23 02:21 35.40192 -119.44592 30103 ft 383 kts 295°
2026-04-23 02:22 35.42840 -119.50306 30101 ft 381 kts 295°
2026-04-23 02:22 35.45461 -119.55972 30099 ft 382 kts 295°
2026-04-23 02:23 35.48071 -119.61623 30101 ft 381 kts 295°
2026-04-23 02:23 35.50663 -119.67245 30111 ft 379 kts 295°
2026-04-23 02:24 35.53272 -119.72911 30119 ft 381 kts 295°
2026-04-23 02:24 35.55880 -119.78585 30116 ft 380 kts 295°
2026-04-23 02:25 35.58483 -119.84261 30121 ft 379 kts 295°
2026-04-23 02:25 35.61064 -119.89897 30123 ft 378 kts 295°
2026-04-23 02:26 35.63656 -119.95592 30124 ft 378 kts 293°
2026-04-23 02:26 35.65081 -120.01714 30135 ft 373 kts 277°
2026-04-23 02:27 35.65707 -120.08029 30119 ft 371 kts 276°
2026-04-23 02:27 35.66330 -120.14365 30120 ft 372 kts 276°
2026-04-23 02:28 35.66952 -120.20725 30119 ft 372 kts 276°
2026-04-23 02:28 35.67570 -120.27077 30120 ft 373 kts 276°
2026-04-23 02:29 35.68244 -120.33443 30115 ft 374 kts 281°
2026-04-23 02:29 35.70195 -120.39436 30126 ft 377 kts 291°
2026-04-23 02:30 35.72452 -120.45299 30126 ft 378 kts 291°
2026-04-23 02:30 35.74680 -120.51125 30126 ft 377 kts 291°
2026-04-23 02:31 35.76946 -120.57066 30135 ft 377 kts 292°
2026-04-23 02:31 35.79194 -120.62966 30128 ft 377 kts 292°
2026-04-23 02:32 35.81420 -120.68823 30140 ft 375 kts 291°
2026-04-23 02:32 35.83635 -120.74660 30140 ft 376 kts 291°
2026-04-23 02:33 35.85871 -120.80566 30135 ft 376 kts 291°
2026-04-23 02:33 35.88094 -120.86448 30130 ft 374 kts 291°
2026-04-23 02:34 35.90305 -120.92306 30132 ft 377 kts 291°
2026-04-23 02:34 35.92500 -120.98132 30130 ft 374 kts 291°
2026-04-23 02:35 35.94706 -121.03999 30134 ft 377 kts 291°
2026-04-23 02:35 35.96923 -121.09909 30136 ft 377 kts 291°
2026-04-23 02:36 35.99125 -121.15790 30134 ft 377 kts 291°
2026-04-23 02:36 36.01311 -121.21637 30131 ft 367 kts 291°
2026-04-23 02:37 36.03433 -121.27321 30140 ft 359 kts 291°
2026-04-23 02:37 36.05538 -121.32956 29911 ft 363 kts 293°
2026-04-23 02:37 36.06880 -121.35563 29544 ft 366 kts 303°
2026-04-23 02:38 36.08667 -121.37859 29120 ft 373 kts 313°
2026-04-23 02:38 36.10828 -121.39709 28708 ft 380 kts 321°
2026-04-23 02:38 36.13083 -121.41376 28298 ft 377 kts 320°
2026-04-23 02:38 36.15302 -121.43074 27871 ft 372 kts 320°
2026-04-23 02:39 36.17484 -121.44766 27453 ft 369 kts 320°
2026-04-23 02:39 36.19630 -121.46439 27054 ft 369 kts 320°
2026-04-23 02:39 36.21780 -121.48118 26646 ft 365 kts 320°
2026-04-23 02:39 36.23905 -121.49779 26236 ft 363 kts 320°
2026-04-23 02:40 36.26041 -121.51452 25847 ft 360 kts 321°
2026-04-23 02:40 36.28140 -121.53095 25451 ft 358 kts 320°
2026-04-23 02:40 36.30240 -121.54741 25053 ft 357 kts 321°
2026-04-23 02:40 36.32314 -121.56367 24669 ft 354 kts 321°
2026-04-23 02:41 36.34392 -121.57997 24285 ft 351 kts 321°
2026-04-23 02:41 36.36462 -121.59623 23902 ft 350 kts 321°
2026-04-23 02:41 36.38509 -121.61231 23519 ft 349 kts 321°
2026-04-23 02:41 36.40557 -121.62841 23130 ft 346 kts 321°
2026-04-23 02:42 36.42565 -121.64420 22758 ft 346 kts 322°
2026-04-23 02:42 36.44600 -121.66022 22392 ft 345 kts 321°
2026-04-23 02:42 36.46618 -121.67612 22014 ft 344 kts 321°
2026-04-23 02:42 36.48631 -121.69198 21628 ft 342 kts 321°
2026-04-23 02:43 36.50617 -121.70764 21295 ft 340 kts 322°
2026-04-23 02:43 36.52630 -121.72354 20924 ft 338 kts 322°
2026-04-23 02:43 36.54567 -121.73883 20331 ft 330 kts 322°
2026-04-23 02:43 36.56484 -121.75400 19497 ft 330 kts 322°
2026-04-23 02:44 36.58416 -121.76930 18607 ft 331 kts 323°
2026-04-23 02:44 36.60355 -121.78465 17824 ft 332 kts 323°
2026-04-23 02:44 36.62278 -121.79988 17330 ft 328 kts 323°
2026-04-23 02:44 36.64211 -121.81519 16809 ft 326 kts 324°
2026-04-23 02:45 36.66102 -121.83019 16425 ft 321 kts 324°
2026-04-23 02:45 36.67972 -121.84502 16172 ft 320 kts 324°
2026-04-23 02:45 36.69855 -121.85998 15907 ft 320 kts 324°
2026-04-23 02:45 36.71738 -121.87493 15641 ft 319 kts 324°
2026-04-23 02:46 36.73597 -121.88954 15379 ft 320 kts 328°
2026-04-23 02:46 36.75730 -121.89844 15122 ft 325 kts 343°
2026-04-23 02:46 36.77939 -121.90468 14862 ft 324 kts 343°
2026-04-23 02:46 36.80109 -121.91076 14596 ft 321 kts 344°
2026-04-23 02:47 36.82304 -121.91689 14324 ft 320 kts 344°
2026-04-23 02:47 36.84460 -121.92292 14054 ft 318 kts 344°
2026-04-23 02:47 36.86606 -121.92892 13791 ft 317 kts 345°
2026-04-23 02:47 36.88743 -121.93489 13522 ft 315 kts 345°
2026-04-23 02:48 36.90900 -121.94092 13270 ft 316 kts 345°
2026-04-23 02:48 36.93019 -121.94685 13010 ft 313 kts 345°
2026-04-23 02:48 36.95161 -121.95297 12734 ft 313 kts 342°
2026-04-23 02:48 36.97214 -121.96085 12451 ft 311 kts 341°
2026-04-23 02:49 36.99293 -121.96898 12203 ft 308 kts 341°
2026-04-23 02:49 37.01266 -121.97668 11920 ft 293 kts 341°
2026-04-23 02:49 37.03172 -121.98412 11611 ft 280 kts 341°
2026-04-23 02:49 37.05000 -121.99125 11307 ft 268 kts 341°
2026-04-23 02:50 37.06724 -121.99798 11002 ft 259 kts 341°
2026-04-23 02:50 37.08445 -122.00470 10699 ft 256 kts 341°
2026-04-23 02:50 37.10136 -122.01131 10399 ft 256 kts 341°
2026-04-23 02:50 37.11847 -122.01800 10142 ft 257 kts 342°
2026-04-23 02:51 37.13560 -122.02470 9858 ft 257 kts 342°
2026-04-23 02:51 37.15274 -122.03140 9593 ft 257 kts 342°
2026-04-23 02:51 37.16972 -122.03805 9333 ft 258 kts 342°
2026-04-23 02:51 37.18675 -122.04472 9072 ft 257 kts 342°
2026-04-23 02:52 37.20401 -122.05148 8804 ft 258 kts 343°
2026-04-23 02:52 37.22118 -122.05821 8535 ft 258 kts 343°
2026-04-23 02:52 37.23810 -122.06484 8271 ft 258 kts 343°
2026-04-23 02:52 37.25526 -122.07157 8009 ft 256 kts 343°
2026-04-23 02:53 37.27240 -122.07830 7745 ft 256 kts 343°
2026-04-23 02:53 37.28943 -122.08500 7476 ft 256 kts 343°
2026-04-23 02:53 37.30640 -122.09168 7211 ft 255 kts 343°
2026-04-23 02:53 37.32330 -122.09834 6942 ft 255 kts 343°
2026-04-23 02:54 37.34004 -122.10494 6637 ft 255 kts 343°
2026-04-23 02:54 37.35702 -122.11163 6316 ft 254 kts 343°
2026-04-23 02:54 37.37369 -122.11819 6002 ft 252 kts 345°
2026-04-23 02:54 37.39033 -122.12398 5677 ft 246 kts 346°
2026-04-23 02:55 37.40675 -122.12961 5347 ft 240 kts 346°
2026-04-23 02:55 37.42258 -122.13504 5021 ft 235 kts 346°
2026-04-23 02:55 37.43833 -122.14045 4674 ft 230 kts 346°
2026-04-23 02:55 37.45345 -122.14564 4339 ft 224 kts 346°
2026-04-23 02:56 37.46820 -122.15070 4010 ft 218 kts 347°
2026-04-23 02:56 37.48272 -122.15569 3681 ft 213 kts 346°
2026-04-23 02:56 37.49689 -122.16057 3403 ft 207 kts 347°
2026-04-23 02:56 37.51059 -122.16528 3148 ft 201 kts 347°
2026-04-23 02:57 37.52363 -122.16978 3094 ft 185 kts 347°
2026-04-23 02:57 37.53430 -122.17757 3068 ft 183 kts 313°
2026-04-23 02:57 37.54106 -122.19151 2853 ft 187 kts 302°
2026-04-23 02:57 37.54716 -122.20581 2612 ft 186 kts 301°
2026-04-23 02:58 37.55324 -122.22015 2364 ft 182 kts 301°
2026-04-23 02:58 37.55899 -122.23372 2119 ft 170 kts 301°
2026-04-23 02:58 37.56437 -122.24645 1894 ft 160 kts 301°
2026-04-23 02:58 37.56949 -122.25852 1790 ft 158 kts 302°
2026-04-23 02:59 37.57445 -122.27029 1537 ft 145 kts 301°
2026-04-23 02:59 37.57895 -122.28096 1323 ft 131 kts 301°
2026-04-23 02:59 37.58313 -122.29081 1150 ft 124 kts 301°
2026-04-23 02:59 37.58714 -122.30026 1009 ft 124 kts 300°
2026-04-23 03:00 37.59124 -122.30998 860 ft 125 kts 300°
2026-04-23 03:00 37.59528 -122.31953 705 ft 124 kts 299°
2026-04-23 03:00 37.59937 -122.32918 547 ft 124 kts 299°
2026-04-23 03:00 37.60344 -122.33865 390 ft 123 kts 298°
2026-04-23 03:01 37.60742 -122.34806 237 ft 122 kts 297°
2026-04-23 03:01 37.61135 -122.35747 79 ft 122 kts 297°
2026-04-23 03:01 37.61514 -122.36652 10 ft 101 kts 298°
2026-04-23 03:01 37.61764 -122.37247 13 ft 58 kts 298°
2026-04-23 03:02 37.61940 -122.37668 23 ft 46 kts 297°
2026-04-23 03:02 37.62003 -122.37849 27 ft 15 kts 274°
2026-04-23 03:02 37.61968 -122.37929 28 ft 6 kts 227°
2026-04-23 03:02 37.61945 -122.37961 29 ft 4 kts 227°
2026-04-23 03:03 37.61926 -122.37988 29 ft 3 kts 229°
2026-04-23 03:03 37.61909 -122.38023 30 ft 6 kts 252°
2026-04-23 03:03 37.61920 -122.38091 30 ft 9 kts 297°
2026-04-23 03:03 37.61955 -122.38176 30 ft 11 kts 298°
2026-04-23 03:04 37.61994 -122.38268 30 ft 11 kts 298°
2026-04-23 03:04 37.62033 -122.38361 30 ft 12 kts 297°
2026-04-23 03:04 37.62073 -122.38457 30 ft 9 kts 298°
2026-04-23 03:04 37.62072 -122.38519 30 ft 8 kts 225°
2026-04-23 03:05 37.62029 -122.38550 30 ft 3 kts 207°
2026-04-23 03:05 37.62007 -122.38563 30 ft 4 kts 208°
2026-04-23 03:05 37.61996 -122.38600 30 ft 5 kts 291°
2026-04-23 03:05 37.62015 -122.38648 30 ft 6 kts 296°
2026-04-23 03:06 37.62027 -122.38679 30 ft 0 kts 297°